TimeCET,TemperatureF,Dew PointF,Humidity,Sea Level PressureIn,VisibilityMPH,Wind Direction,Wind SpeedMPH,Gust SpeedMPH,PrecipitationIn,Events,Conditions,WindDirDegrees,DateUTC
12:20 AM,28.4,23.0,80,29.68,3.7,ENE,15.0,-,N/A,Snow,Light Snow,60,2013-03-11 23:20:00
12:50 AM,28.4,21.2,74,29.68,5.6,NE,16.1,-,N/A,Snow,Light Snow,50,2013-03-11 23:50:00
1:00 AM,28,22,69,29.70,5,NE,15.7,,,Snow,Light Snow,50,2013-03-12 00:00:00
1:20 AM,26.6,21.2,80,29.68,-9999.0,NE,15.0,-,N/A,Snow,Light Snow,50,2013-03-12 00:20:00
1:50 AM,26.6,23.0,86,29.68,1.1,NE,15.0,-,N/A,Snow,Light Snow,50,2013-03-12 00:50:00
2:20 AM,26.6,23.0,86,29.68,1.2,NE,16.1,-,N/A,Snow,Light Snow,50,2013-03-12 01:20:00
2:50 AM,26.6,23.0,86,29.68,-9999.0,NE,15.0,-,N/A,Snow,Light Snow,50,2013-03-12 01:50:00
3:20 AM,26.6,23.0,86,29.65,1.7,NE,15.0,-,N/A,Snow,Light Snow,50,2013-03-12 02:20:00
3:50 AM,26.6,23.0,86,29.65,1.1,NE,18.4,-,N/A,Snow,Light Snow,50,2013-03-12 02:50:00
4:00 AM,26,22,80,29.67,1,NE,17.9,,,Snow,Light Snow,50,2013-03-12 03:00:00
4:20 AM,26.6,21.2,80,29.65,0.8,NE,17.3,31.1,N/A,Snow,Light Snow,50,2013-03-12 03:20:00
4:50 AM,24.8,21.2,86,29.65,1.5,NE,15.0,-,N/A,Snow,Light Snow,50,2013-03-12 03:50:00
5:20 AM,24.8,21.2,86,29.65,1.6,NE,18.4,-,N/A,Snow,Light Snow,50,2013-03-12 04:20:00
5:50 AM,24.8,21.2,86,29.65,0.8,NE,16.1,-,N/A,Snow,Light Snow,50,2013-03-12 04:50:00
6:20 AM,24.8,21.2,86,29.65,1.6,NE,16.1,-,N/A,Snow,Light Snow,50,2013-03-12 05:20:00
6:50 AM,24.8,21.2,86,29.65,1.1,NE,15.0,-,N/A,Snow,Light Snow,50,2013-03-12 05:50:00
7:00 AM,26,21,76,29.66,1,NE,15.7,,,Snow,Light Snow,50,2013-03-12 06:00:00
7:20 AM,24.8,21.2,86,29.65,1.4,NE,16.1,-,N/A,Snow,Light Snow,50,2013-03-12 06:20:00
7:50 AM,24.8,21.2,86,29.65,1.0,NE,13.8,-,N/A,Snow,Light Snow,40,2013-03-12 06:50:00
8:20 AM,24.8,21.2,86,29.65,1.0,NE,15.0,-,N/A,Snow,Light Snow,50,2013-03-12 07:20:00
8:50 AM,24.8,21.2,86,29.68,1.4,NE,16.1,-,N/A,Snow,Light Snow,50,2013-03-12 07:50:00
9:20 AM,24.8,21.2,86,29.65,1.2,NE,15.0,26.5,N/A,Snow,Light Snow,50,2013-03-12 08:20:00
9:50 AM,24.8,21.2,86,29.68,1.2,NE,16.1,-,N/A,Snow,Light Snow,40,2013-03-12 08:50:00
10:00 AM,26,21,72,29.68,1,NE,15.7,,,Snow,Light Snow,40,2013-03-12 09:00:00
10:20 AM,26.6,21.2,80,29.68,1.4,NE,13.8,-,N/A,Snow,Light Snow,40,2013-03-12 09:20:00
10:50 AM,26.6,21.2,80,29.68,-9999.0,NE,17.3,-,N/A,Snow,Light Snow,50,2013-03-12 09:50:00
11:20 AM,28.4,19.4,69,29.68,6.2,NE,18.4,-,N/A,Snow,Light Snow,50,2013-03-12 10:20:00
11:50 AM,28.4,17.6,64,29.68,6.2,NE,19.6,32.2,N/A,,Partly Cloudy,50,2013-03-12 10:50:00
12:20 PM,30.2,17.6,60,29.68,6.2,ENE,18.4,32.2,N/A,,Scattered Clouds,60,2013-03-12 11:20:00
12:50 PM,28.4,17.6,64,29.68,6.2,NE,16.1,-,N/A,,Partly Cloudy,40,2013-03-12 11:50:00
1:00 PM,29,17,48,29.69,19,NE,15.7,,,,Partly Cloudy,40,2013-03-12 12:00:00
1:20 PM,30.2,15.8,55,29.68,6.2,NE,19.6,-,N/A,,Partly Cloudy,50,2013-03-12 12:20:00
1:50 PM,30.2,15.8,55,29.68,6.2,NE,17.3,-,N/A,,Partly Cloudy,40,2013-03-12 12:50:00
2:20 PM,30.2,15.8,55,29.68,6.2,NE,18.4,29.9,N/A,,Partly Cloudy,50,2013-03-12 13:20:00
2:50 PM,32.0,15.8,51,29.68,6.2,NE,16.1,-,N/A,,Partly Cloudy,40,2013-03-12 13:50:00
3:20 PM,32.0,15.8,51,29.68,6.2,NE,16.1,27.6,N/A,,Partly Cloudy,50,2013-03-12 14:20:00
3:50 PM,30.2,15.8,55,29.68,6.2,NE,17.3,-,N/A,,Partly Cloudy,40,2013-03-12 14:50:00
4:00 PM,31,15,38,29.69,19,NE,15.7,,,,Scattered Clouds,40,2013-03-12 15:00:00
4:20 PM,30.2,14.0,51,29.68,-9999.0,NE,13.8,-,N/A,,Clear,40,2013-03-12 15:20:00
4:50 PM,30.2,15.8,55,29.68,-9999.0,NE,13.8,-,N/A,,Clear,40,2013-03-12 15:50:00
5:20 PM,32.0,15.8,51,29.68,-9999.0,NE,12.7,-,N/A,,Clear,40,2013-03-12 16:20:00
5:50 PM,30.2,14.0,51,29.68,-9999.0,NE,13.8,-,N/A,,Clear,40,2013-03-12 16:50:00
6:20 PM,30.2,14.0,51,29.68,-9999.0,NE,11.5,-,N/A,,Clear,40,2013-03-12 17:20:00
6:50 PM,30.2,15.8,55,29.68,-9999.0,NE,10.4,-,N/A,,Clear,40,2013-03-12 17:50:00
7:00 PM,29,16,44,29.71,31,NE,11.2,,,,Partly Cloudy,40,2013-03-12 18:00:00
7:20 PM,28.4,15.8,59,29.71,-9999.0,NNE,9.2,-,N/A,,Clear,20,2013-03-12 18:20:00
7:50 PM,28.4,15.8,59,29.71,-9999.0,NNE,9.2,-,N/A,,Clear,30,2013-03-12 18:50:00
8:20 PM,28.4,14.0,55,29.71,-9999.0,NNE,9.2,-,N/A,,Clear,30,2013-03-12 19:20:00
8:50 PM,28.4,12.2,51,29.71,-9999.0,NNE,6.9,-,N/A,,Clear,30,2013-03-12 19:50:00
9:20 PM,26.6,12.2,55,29.71,-9999.0,NNE,5.8,-,N/A,,Clear,20,2013-03-12 20:20:00
9:50 PM,26.6,14.0,59,29.74,-9999.0,NNE,5.8,-,N/A,,Clear,20,2013-03-12 20:50:00
10:00 PM,27,13,43,29.74,22,NNE,4.5,,,,Clear,20,2013-03-12 21:00:00
10:20 PM,24.8,14.0,64,29.74,-9999.0,NNE,4.6,-,N/A,,Clear,20,2013-03-12 21:20:00
10:50 PM,26.6,14.0,59,29.74,-9999.0,North,5.8,-,N/A,,Clear,10,2013-03-12 21:50:00
11:20 PM,24.8,14.0,64,29.74,-9999.0,NNE,4.6,-,N/A,,Clear,20,2013-03-12 22:20:00
11:50 PM,24.8,14.0,64,29.74,-9999.0,NNE,4.6,-,N/A,,Clear,20,2013-03-12 22:50:00